Location: Academy at Carrie F Thomas
(32.8490°N, 97.2053°W)
Time: 09:19:52
(UTC+00:00)

Meteor 1-25 Rocket - Pass Details

Date: 03 July 2022
Orbit: 835 x 892 km, 81.2° (Epoch: 14 August)

Event Time Altitude Azimuth Distance (km) Brightness Sun altitude
Exits shadow 10:29:06 13° 247° (WSW) 2,346 5.9 -10.8°
Maximum altitude 10:32:30 21° 287° (WNW) 1,914 5.7 -10.2°
Drops below altitude 10° 10:36:46 10° 334° (NNW) 2,563 6.8 -9.5°
Sets 10:39:54 0° 351° (N) 3,502 7.8 -8.9°
